Flag for Canada Weather past 2 weeks in Strathcona County, Alberta, Canada

Now
46 °F

Passing clouds.


Feels Like: 40 °F
Forecast: 26 / 40 °F
Wind: 14 mph from West

Location: Edmonton Municipal

Current Time: Oct 1, 2014 at 7:18:44 PM

Latest Report: Oct 1, 2014 at 6:00 PM


Visibility: 9 mi

Pressure: 29.84 "Hg

Humidity: 57%

Dew point: 32 °F

Location of Strathcona CountyLocation

Historic Weather in Strathcona County — Graph

°F

Strathcona County temperature yesterday

Maximum temperature yesterday: 57 °F (at 2:00 PM)
Minimum temperature yesterday: 46 °F (at 2:00 AM)
Average temperature yesterday: 52 °F

Past Weeks' High & Low Weather Summary

 TemperatureHumidityPressure
High84 °F (Sep 22, 4:00 PM)100% (Sep 26, 9:00 AM)30.48 "Hg (Sep 26, 9:00 AM)
Low37 °F (Sep 27, 7:03 AM)25% (Sep 22, 4:00 PM)29.55 "Hg (Sep 18, 5:00 AM)
Average57 °F66%29.87 "Hg
* Reported Sep 16 6:00 PM — Oct 1 6:00 PM, Strathcona County, Weather by CustomWeather, © 2014

Note: Actual official high and low records may vary slightly from our data, if they occured in-between our weather recording intervals... More about our weather records

Advertising

Strathcona County weather history for previous 24 hours

 ConditionsComfort  
Time TempWeatherWind HumidityBarometerVisibility
6:00 PM
Oct 1
46 °FPassing clouds.14 mph57%29.84 "Hg9 mi
5:00 PM48 °FPassing clouds.13 mph54%29.83 "Hg9 mi
4:00 PM50 °FBroken clouds.22 mph58%29.84 "Hg9 mi
3:00 PM48 °FPassing clouds.6 mph66%29.82 "Hg9 mi
2:57 PM48 °FScattered clouds.5 mph66%29.76 "Hg9 mi
2:00 PM48 °FLight rain. Broken clouds.16 mph62%29.83 "Hg9 mi
1:00 PM52 °FOvercast.17 mph47%29.81 "Hg9 mi
12:00 PM57 °FSunny.12 mph44%29.80 "Hg9 mi
11:00 AM54 °FSunny.10 mph51%29.81 "Hg9 mi
10:00 AM48 °FPassing clouds.8 mph62%29.84 "Hg9 mi
9:00 AM45 °FPartly sunny.6 mph66%29.86 "Hg9 mi
8:00 AM39 °FClear.7 mph81%29.87 "Hg9 mi
7:00 AM39 °FPassing clouds.8 mph87%29.86 "Hg9 mi
6:00 AM39 °FClear.7 mph87%29.86 "Hg9 mi
5:00 AM39 °FClear.3 mph87%29.85 "Hg9 mi
4:00 AM41 °FClear.6 mph81%29.84 "Hg9 mi
3:00 AM41 °FClear.6 mph81%29.84 "Hg9 mi
2:00 AM43 °FClear.8 mph81%29.84 "Hg9 mi
1:00 AM43 °FClear.3 mph81%29.83 "Hg9 mi
12:00 AM43 °FClear.5 mph81%29.84 "Hg9 mi
11:00 PM
Sep 30
46 °FClear.8 mph71%29.84 "Hg9 mi
10:00 PM46 °FClear.7 mph71%29.83 "Hg9 mi
9:00 PM48 °FPassing clouds.8 mph62%29.82 "Hg9 mi
8:00 PM54 °FScattered clouds.8 mph54%29.80 "Hg9 mi
7:00 PM55 °FOvercast.16 mph51%29.78 "Hg9 mi
Weather by CustomWeather, © 2014

See weather overviewHow to use our weather pages